User: anonymous   Login
Location: Caltech
(34.1382°N, 118.1253°W)
Time: 09:31:40
(UTC-08:00)
Language:

FO-29 - Orbit

View from above orbital plane
View from above orbital plane
View from above satellite
View from above satellite

Ground track
Ground track

The orbit data is extracted from the following two-line orbital elements,

1 24278U 96046B   18022.85498517 -.00000012  00000-0  20628-4 0  9994
2 24278  98.5305 241.5207 0351209 127.8588 235.4879 13.53080778 58581
Epoch (UTC): 22 January 2018 20:31:10
Eccentricity: 0.0351209
inclination: 98.5305°
perigee height: 799 km
apogee height: 1322 km
right ascension of ascending node: 241.5207°
argument of perigee: 127.8588°
revolutions per day: 13.53080778
mean anomaly at epoch: 235.4879°
orbit number at epoch: 5858

The dashed part of the orbit path shows where the satellite is in the earth's shadow,  

DLR